Temperature
14 15 16 16 14 12 14 15 15 15 16 17 18 18 17 17 17 18 18 18 18 18 17 17 17 17 17 17 17 17 17 17 17 17 17 17 17 17 16 16 16 16 16 16 16 16 16 16 16
14 15 15 15 12 13 14 14 14 16 17 17 18 18 17 17 17 18 18 18 18 17 17 17 17 17 17 17 17 17 17 17 17 17 17 17 17 16 16 16 16 16 16 16 16 16 16 16 15
14 14 15 12 12 13 15 14 14 16 17 17 17 17 17 17 17 17 18 18 17 17 17 17 16 16 17 17 17 17 17 17 17 17 17 17 16 16 16 16 16 16 16 16 16 15 15 15 15
14 14 14 12 13 13 14 15 15 15 17 17 17 16 16 17 17 17 17 17 17 17 16 16 16 16 16 17 17 17 17 17 17 17 17 16 16 16 16 16 16 16 16 16 15 15 15 15 15
13 14 12 12 13 13 13 14 15 15 15 16 16 15 16 17 17 17 17 17 17 17 16 16 16 16 16 16 16 16 16 16 16 16 16 16 16 16 16 16 16 16 16 15 15 15 15 15 15
13 12 11 12 12 13 13 15 15 15 15 15 16 15 16 16 17 17 17 17 17 16 16 16 16 16 16 16 16 16 16 16 16 16 16 16 16 16 16 16 15 15 15 15 15 15 15 15 14
12 10 11 12 12 13 14 15 15 14 14 15 16 15 15 16 17 17 16 16 16 16 16 16 16 16 16 16 16 16 16 16 16 16 16 16 16 16 16 16 15 15 15 15 15 15 15 14 14
12 10 11 11 12 13 14 15 16 15 15 16 16 15 15 16 16 16 16 16 16 16 16 16 16 16 16 16 16 16 16 16 16 16 16 16 16 16 15 15 15 15 15 15 15 15 14 14 14
11 10 11 11 12 13 14 14 15 16 15 15 15 16 16 16 16 16 16 15 15 15 15 15 15 15 15 15 15 15 15 15 15 15 15 15 15 15 15 15 15 15 15 15 14 14 14 14 14
11 10 11 12 12 13 14 14 15 14 13 14 14 15 15 15 15 15 15 15 15 15 15 15 15 15 15 15 15 15 15 15 15 15 15 15 15 15 15 15 15 15 15 14 14 14 14 14 13
10 10 11 12 13 14 14 14 15 14 13 13 14 15 15 15 15 15 15 15 15 15 15 15 15 15 15 15 15 15 15 15 15 15 15 15 15 15 15 15 14 14 14 14 14 14 13 13 13
9 10 11 12 13 13 13 13 13 13 14 15 16 15 15 15 14 15 15 15 15 14 15 15 15 15 15 15 15 15 15 15 15 15 15 15 15 15 15 14 14 14 14 14 14 13 13 13 13
9 10 11 11 12 12 12 12 12 12 14 15 15 14 14 14 14 15 15 15 14 14 14 14 14 15 15 15 15 15 15 15 15 14 14 14 14 14 14 14 14 14 13 13 13 13 13 13 12
9 9 10 11 12 12 12 11 12 12 13 14 14 14 14 14 14 14 14 14 14 14 14 14 14 14 14 14 14 14 14 14 14 14 14 14 14 14 14 14 14 13 13 13 13 13 13 12 12
9 9 9 10 11 11 12 11 10 12 12 12 13 13 13 13 14 14 14 15 15 14 14 14 14 14 14 14 14 14 14 14 14 14 14 14 14 14 14 13 13 13 13 13 12 12 12 12 12
8 8 8 9 10 11 11 10 10 11 12 12 12 12 12 13 13 14 14 14 14 14 14 14 14 14 14 14 14 14 13 13 13 13 13 13 13 13 13 13 13 13 12 12 12 12 12 12 12
7 7 8 9 9 10 10 9 9 11 11 11 11 12 12 12 13 13 13 14 14 14 14 14 14 14 13 13 13 13 13 13 13 13 13 13 13 13 13 13 12 12 12 12 12 12 11 11 11
7 7 7 8 8 9 8 8 9 10 10 10 11 11 11 12 12 13 13 13 13 13 13 13 13 13 13 13 13 13 13 13 13 12 12 12 12 12 12 12 12 12 12 12 11 11 11 11 11
7 7 7 7 8 8 8 8 8 8 9 9 10 10 11 11 12 12 12 13 13 13 13 13 13 13 13 13 13 13 13 12 12 12 12 12 12 12 12 12 12 12 11 11 11 11 11 10 10
7 6 6 7 8 8 8 8 8 7 8 9 9 9 10 11 11 12 12 12 12 12 13 12 12 12 12 12 12 12 12 12 12 12 11 11 11 11 11 11 11 11 11 11 10 10 10 10 10
6 6 6 7 7 7 8 8 8 8 8 8 9 9 10 10 10 11 11 12 12 12 12 12 12 12 12 12 12 12 12 11 11 11 11 11 11 11 11 11 11 10 10 10 10 10 10 10 9
6 7 7 7 7 6 7 7 7 7 7 7 7 8 9 9 10 10 11 11 12 12 12 12 12 12 12 12 11 11 11 11 11 11 10 10 10 10 10 10 10 10 10 10 10 9 9 9 9
6 7 7 7 6 6 6 6 6 6 6 6 6 7 8 9 9 10 10 11 11 11 11 11 11 11 11 11 11 11 11 11 10 10 10 10 10 10 10 10 10 10 9 9 9 9 9 9 8
6 6 6 5 5 6 6 6 6 5 6 6 6 7 8 8 9 9 10 10 11 11 11 11 11 11 11 11 11 10 10 10 10 10 10 10 9 9 9 9 9 9 9 9 9 9 8 8 8
6 5 5 5 5 5 5 5 5 5 5 6 6 6 7 8 8 9 9 10 10 10 10 10 10 10 10 10 10 10 10 10 9 9 9 9 9 9 9 9 9 9 9 8 8 8 8 8 8
5 5 5 5 5 4 5 5 4 4 4 5 6 6 6 7 7 8 8 9 9 10 10 10 10 10 10 9 9 9 9 9 9 9 9 9 9 9 9 8 8 8 8 8 8 8 8 7 7
4 4 4 4 3 4 4 4 4 4 3 4 4 4 5 6 7 7 8 8 9 9 9 9 9 9 9 9 9 9 8 8 8 8 8 8 8 8 8 8 8 8 8 7 7 7 7 7 7
4 3 3 3 4 4 4 4 4 3 3 3 3 3 4 5 6 6 7 7 8 8 9 9 9 9 9 8 8 8 8 8 8 7 7 7 7 7 7 7 7 7 7 7 7 7 7 6 6
3 3 3 3 3 3 4 4 3 3 3 2 2 2 3 4 5 5 6 7 7 8 8 8 8 8 8 8 8 7 7 7 7 7 7 7 7 7 7 7 7 7 7 6 6 6 6 6 6
3 3 2 3 2 2 2 3 3 2 2 2 2 2 3 3 4 5 5 6 6 7 7 7 7 7 7 7 7 7 7 7 7 6 6 6 6 6 6 6 6 6 6 6 6 6 5 5 5
Wind_Speed
4 3 3 3 4 2 5 5 4 3 4 2 2 5 7 6 5 3 1 7 10 11 14 18 18 18 17 18 18 18 18 18 18 18 17 17 16 16 16 15 16 15 15 16 15 15 15 15 15
1 2 4 4 4 4 6 5 5 5 4 3 2 3 4 2 1 3 4 7 11 12 14 16 19 18 18 18 18 18 18 17 17 17 16 16 16 16 15 15 15 15 15 15 15 14 14 14 14
1 3 3 3 5 9 6 4 7 2 2 2 3 2 3 2 2 3 4 10 11 11 14 17 19 18 17 17 17 17 17 17 16 16 16 16 16 16 15 15 15 15 14 14 14 14 14 13 13
2 3 3 3 9 8 5 3 5 4 1 2 4 2 0 1 2 3 9 11 12 10 13 17 19 18 18 17 17 16 16 16 16 16 15 15 15 15 15 14 14 14 14 13 13 13 13 13 12
2 3 3 5 9 5 4 3 3 4 3 2 4 4 0 3 3 8 11 12 12 10 12 16 19 18 17 17 16 16 15 15 16 15 15 15 14 14 14 14 13 13 13 13 12 12 12 12 12
2 2 5 9 8 5 4 3 3 2 3 2 5 4 1 1 6 9 11 10 10 10 11 15 18 18 17 17 16 16 15 15 15 15 15 15 15 14 14 13 13 12 12 12 12 11 11 11 11
4 4 7 7 6 5 4 4 5 5 3 4 5 4 1 2 6 9 10 9 9 9 10 11 14 16 16 16 16 16 15 15 14 14 14 14 14 13 13 13 12 11 11 11 11 11 11 11 11
3 3 6 7 7 6 3 4 3 5 4 2 4 6 5 5 8 10 10 9 8 7 8 9 11 13 13 14 15 15 15 14 14 14 14 13 13 13 12 11 11 11 10 10 10 10 10 10 10
2 3 9 9 8 4 3 3 1 2 4 1 1 3 3 9 12 12 10 8 8 7 6 7 9 10 12 13 14 14 14 14 14 13 13 12 11 11 10 10 10 10 10 9 9 9 9 9 9
3 8 11 6 4 4 3 4 4 4 2 1 1 2 6 11 13 14 14 13 11 9 7 6 8 9 10 10 12 11 11 12 12 11 12 11 11 10 9 9 9 9 9 9 8 8 8 8 7
4 7 5 3 2 2 3 3 3 7 4 6 7 9 11 11 12 13 13 12 11 9 7 7 7 9 9 8 9 9 9 10 10 11 11 11 10 8 8 7 7 8 8 8 7 7 7 7 6
4 4 3 3 1 1 2 2 1 3 5 4 7 12 13 12 12 12 12 10 9 8 7 7 7 8 8 8 8 8 8 8 8 9 10 10 7 6 6 6 6 6 6 6 6 5 5 5 5
5 4 4 3 2 1 1 1 2 2 2 4 7 10 12 11 9 8 8 9 8 8 7 7 7 8 8 8 7 7 7 8 8 9 9 9 7 5 5 5 5 5 5 5 4 4 4 4 4
4 3 2 2 2 2 2 2 1 3 2 6 8 9 9 9 9 8 8 8 8 8 8 7 7 7 8 6 6 6 6 8 8 8 8 9 8 7 6 5 4 4 4 4 4 4 3 3 3
3 2 3 4 3 2 2 2 4 3 4 6 6 7 7 7 7 8 9 9 9 8 7 7 7 7 8 7 7 6 6 7 6 6 7 8 8 8 6 4 3 3 4 4 5 4 4 3 3
3 3 4 4 3 1 4 7 4 2 6 6 6 6 6 5 5 5 6 7 7 8 8 7 7 7 7 6 6 6 6 6 6 6 7 7 8 8 7 4 3 3 4 4 3 2 2 2 2
3 5 6 3 3 2 4 5 3 2 6 6 6 6 6 5 3 3 4 6 7 7 8 7 7 7 7 6 6 6 6 5 5 6 6 6 7 7 7 4 3 4 4 3 2 2 2 1 2
7 6 5 5 3 3 3 3 3 1 4 6 5 5 6 6 4 3 4 5 6 6 7 7 6 6 7 6 5 5 5 4 4 5 5 6 6 6 6 4 4 4 3 2 2 2 2 1 1
6 5 4 3 2 3 5 4 4 2 2 4 5 5 6 5 2 3 3 4 5 6 6 6 7 6 6 5 4 4 3 3 2 3 5 5 5 5 5 4 3 3 2 2 2 2 3 2 1
5 5 3 1 1 3 3 3 3 2 3 5 7 6 5 3 2 2 2 3 4 6 6 6 6 6 5 4 3 3 3 3 2 3 4 4 5 5 4 4 3 3 3 3 2 2 2 1 1
4 7 6 4 1 2 3 2 3 2 1 1 2 4 4 5 5 3 3 3 4 5 6 6 6 6 5 5 5 5 4 3 2 2 1 2 4 4 4 4 4 3 3 3 2 2 3 2 1
5 5 6 5 3 1 4 4 5 3 2 3 4 4 4 4 3 3 3 3 3 3 3 4 6 6 5 6 6 7 4 3 3 2 2 2 3 4 4 4 4 3 2 3 3 2 2 3 2
3 4 4 4 3 1 2 3 5 2 5 7 6 5 4 4 4 3 3 3 2 2 3 4 5 5 5 5 6 6 4 3 2 2 3 2 2 3 4 4 4 3 2 2 2 2 2 2 2
3 4 4 3 2 4 5 5 5 5 8 6 5 5 4 4 3 2 1 2 2 2 2 4 5 5 5 5 5 5 6 5 5 3 3 2 1 2 2 3 3 3 2 2 2 2 2 2 2
4 6 2 1 2 4 4 4 6 5 4 5 6 5 4 3 3 3 2 3 3 2 2 4 5 5 4 5 5 5 5 6 6 4 4 3 2 1 1 2 3 3 3 3 3 3 2 2 2
4 6 5 4 5 2 2 5 5 3 3 2 3 3 3 3 3 3 3 3 3 3 3 4 5 5 5 5 4 4 5 4 3 3 3 3 2 2 2 3 3 3 3 3 3 2 1 1 2
4 4 2 4 2 1 3 4 5 2 2 1 2 2 2 2 2 3 2 2 3 3 3 4 5 5 5 5 4 4 4 4 4 3 3 2 1 2 3 3 3 3 3 3 2 1 2 2 1
2 4 4 4 3 2 3 4 4 3 2 0 1 0 0 0 1 1 1 2 2 3 3 3 4 5 4 5 4 3 4 4 4 4 3 2 2 2 3 2 2 2 2 2 2 1 1 2 1
1 3 3 3 3 4 3 5 3 4 3 3 2 1 0 0 1 1 1 1 2 2 3 3 3 3 3 4 4 4 3 4 4 3 3 2 2 2 3 2 2 2 2 1 1 1 2 2 1
2 2 3 4 3 3 3 5 2 1 1 2 1 0 1 0 0 0 0 1 2 2 3 3 3 3 3 3 4 4 3 4 4 3 2 3 2 2 2 2 2 2 2 2 2 2 2 2 2
Wind_Direction
321 30 59 59 67 72 229 233 215 202 204 208 165 148 155 158 163 183 101 138 134 141 147 144 141 138 135 131 129 126 122 120 117 115 113 112 111 109 106 103 100 98 96 93 92 91 88 87 86
40 61 59 73 127 194 246 223 213 209 184 141 99 106 120 173 129 120 130 142 135 136 141 143 141 138 136 133 131 128 125 122 120 117 115 114 111 110 107 104 102 98 96 94 93 92 90 89 87
100 68 101 112 169 199 217 213 207 212 192 145 115 93 138 170 150 154 152 140 129 131 138 143 141 139 138 136 133 131 128 125 123 120 118 114 112 111 109 106 103 100 98 96 95 93 91 89 88
101 75 74 155 213 219 210 211 184 173 194 136 131 108 353 342 171 154 137 134 130 131 138 143 142 141 139 136 133 131 129 128 125 122 119 116 114 112 109 107 105 102 100 98 95 94 92 89 87
78 120 154 215 230 237 232 236 181 171 172 152 138 137 311 342 101 127 135 135 136 134 137 144 143 142 140 138 134 131 129 128 126 123 120 118 116 113 110 108 105 103 101 98 96 95 94 91 89
119 130 180 215 228 242 240 210 164 163 168 145 138 133 189 58 123 134 138 136 135 135 134 143 144 142 140 138 135 132 129 126 126 125 123 119 117 114 112 110 107 103 100 99 98 96 95 94 91
167 170 201 202 211 230 226 181 168 168 171 191 158 129 169 156 138 136 135 129 127 129 130 134 139 140 140 137 134 132 129 127 125 124 123 121 119 117 115 112 110 106 103 102 100 97 95 95 92
168 163 201 211 201 222 204 167 170 167 186 169 148 151 182 176 141 130 126 127 128 127 130 129 132 135 135 135 134 131 129 128 126 121 118 119 118 116 114 113 112 110 107 105 102 98 94 94 91
125 193 212 209 198 211 177 159 159 131 128 124 170 186 173 142 139 136 134 133 139 138 132 129 128 129 131 132 132 128 125 124 121 119 116 111 109 110 111 112 112 109 107 106 103 99 95 92 87
165 210 219 208 196 194 183 173 169 126 139 160 83 81 125 143 150 154 158 160 160 156 149 138 132 131 129 131 128 124 122 120 118 118 116 112 108 109 111 109 107 105 103 101 98 97 91 84 78
182 212 220 234 228 207 187 184 175 148 192 200 173 155 149 151 160 164 165 165 165 159 151 145 139 135 132 129 128 125 124 122 120 121 120 116 108 104 100 98 96 95 92 88 87 84 80 78 75
192 238 224 257 284 244 202 167 165 191 214 184 162 155 156 160 169 172 168 164 158 154 153 148 142 137 135 133 131 130 129 127 126 129 129 123 114 106 101 97 97 95 95 88 82 83 81 77 74
208 230 235 271 317 240 180 189 178 272 267 126 134 149 160 166 168 166 162 158 154 155 154 151 146 143 140 134 134 133 135 135 135 137 138 136 130 125 114 105 100 99 101 96 87 84 78 71 64
202 225 245 283 293 269 166 275 142 257 135 130 146 161 168 167 167 159 156 161 164 163 158 152 148 146 141 138 138 137 136 136 136 140 144 143 138 134 127 114 103 97 101 100 94 89 82 70 66
150 189 268 263 251 236 128 304 242 233 145 149 164 167 168 170 169 173 172 169 168 164 155 153 152 146 145 142 139 135 134 135 135 140 145 144 141 137 131 122 111 105 103 95 84 71 71 66 62
138 158 214 242 209 225 156 230 253 182 159 170 177 175 177 179 176 179 169 164 162 158 153 153 153 147 146 142 137 134 131 132 136 137 138 142 143 141 130 124 120 113 102 94 90 74 67 51 47
161 193 207 230 203 164 171 220 247 193 174 181 181 178 178 177 168 164 160 162 159 156 154 150 145 147 145 136 130 125 124 127 131 133 135 139 143 144 135 131 128 118 100 90 96 80 88 68 34
190 187 191 198 204 161 187 227 267 238 181 188 187 179 179 186 193 166 152 153 149 146 147 146 142 142 137 128 118 111 108 111 118 128 136 138 141 143 134 129 127 120 109 95 94 96 75 82 52
169 172 186 218 212 174 195 226 250 252 191 196 194 185 187 193 183 142 142 140 135 136 144 152 149 148 145 140 141 142 147 143 129 121 130 135 134 137 132 127 119 118 123 130 127 115 90 53 37
164 172 188 223 265 178 178 244 255 223 212 210 201 195 192 185 166 144 132 132 146 154 157 158 159 155 155 153 143 130 129 132 126 113 111 129 136 143 148 140 137 131 127 116 118 123 122 79 54
194 185 182 176 52 89 123 279 253 238 204 207 203 193 187 188 187 181 158 158 149 158 165 168 163 156 153 138 120 106 92 83 94 112 129 128 141 144 142 144 139 137 142 155 157 149 144 147 59
210 191 169 157 138 202 157 218 255 224 222 223 220 202 197 195 186 179 171 166 168 173 159 154 153 149 146 140 145 149 153 161 177 164 155 125 130 135 138 137 135 135 135 157 173 154 155 148 155
183 165 162 154 148 135 159 181 262 211 226 231 224 214 205 198 185 180 180 177 165 153 149 148 142 141 143 145 151 150 141 133 123 126 134 127 97 109 128 136 133 126 121 139 141 142 142 148 162
137 101 80 74 111 204 199 180 242 213 216 218 214 211 204 187 180 175 145 130 111 97 121 139 139 138 141 143 145 149 145 136 134 141 148 143 118 83 104 123 118 115 111 124 133 129 130 135 142
129 125 126 159 199 228 178 183 234 238 231 224 214 203 193 170 169 169 145 139 131 124 139 144 141 138 141 145 147 150 148 148 156 162 165 158 152 149 150 110 113 113 113 111 114 115 127 141 144
189 159 164 179 194 247 180 214 242 273 289 242 191 169 159 159 166 185 191 172 162 154 156 153 150 145 144 148 150 144 140 144 149 153 157 165 174 166 144 119 114 113 114 113 112 118 143 131 156
159 184 158 121 97 145 230 272 294 319 350 41 104 123 159 172 175 197 195 176 171 166 173 172 160 151 151 151 141 137 140 140 140 139 137 141 136 136 131 124 124 116 115 119 123 158 161 149 172
157 149 120 132 154 212 265 248 234 251 251 276 101 120 278 226 181 204 182 181 185 179 168 158 159 159 155 149 148 148 146 139 133 129 134 136 133 125 129 127 128 125 122 121 124 156 160 150 177
121 135 126 130 155 165 219 256 229 209 202 192 199 209 224 236 216 225 220 187 167 146 142 143 147 138 141 146 141 136 135 130 130 135 143 135 128 138 149 150 148 151 149 146 153 183 188 175 199
149 159 150 164 194 176 183 263 320 224 192 157 180 295 9 13 344 10 43 84 99 121 132 138 141 142 145 143 138 134 128 126 129 134 134 124 124 135 143 144 160 173 176 183 189 204 213 207 218
Height
1500 1502 1504 1507 1511 1520 1518 1512 1507 1506 1505 1504 1504 1506 1507 1510 1514 1518 1513 1513 1517 1520 1523 1527 1530 1532 1535 1536 1538 1540 1542 1543 1544 1546 1547 1548 1549 1550 1551 1552 1552 1553 1553 1554 1554 1555 1555 1556 1556
1499 1502 1505 1506 1515 1523 1516 1507 1505 1502 1501 1502 1503 1504 1506 1507 1508 1509 1510 1513 1517 1520 1523 1527 1530 1533 1535 1537 1539 1541 1543 1544 1545 1547 1548 1549 1550 1551 1552 1553 1553 1554 1555 1555 1556 1556 1556 1557 1557
1499 1501 1504 1506 1513 1512 1507 1502 1500 1500 1500 1501 1502 1504 1506 1507 1508 1509 1510 1513 1517 1521 1524 1527 1530 1533 1536 1538 1540 1542 1544 1545 1546 1548 1549 1550 1551 1552 1553 1554 1554 1555 1555 1556 1556 1557 1557 1557 1557
1498 1501 1503 1507 1506 1502 1499 1497 1497 1498 1499 1500 1501 1504 1505 1507 1508 1509 1511 1514 1518 1521 1525 1528 1531 1534 1536 1538 1541 1543 1544 1546 1547 1549 1550 1551 1552 1553 1554 1555 1555 1556 1556 1557 1557 1558 1558 1558 1558
1497 1498 1503 1506 1502 1498 1496 1495 1496 1497 1498 1499 1501 1503 1505 1507 1508 1509 1512 1515 1518 1522 1525 1529 1532 1534 1537 1539 1541 1543 1545 1547 1548 1549 1551 1552 1553 1554 1555 1555 1556 1557 1557 1557 1558 1558 1558 1559 1559
1495 1496 1503 1503 1499 1496 1494 1494 1495 1496 1498 1499 1500 1502 1504 1506 1508 1510 1513 1516 1519 1522 1526 1529 1532 1535 1537 1539 1542 1544 1546 1547 1549 1550 1551 1552 1554 1555 1555 1556 1557 1557 1558 1558 1558 1558 1559 1559 1559
1493 1495 1497 1497 1497 1495 1492 1492 1494 1495 1497 1498 1499 1502 1504 1506 1508 1511 1514 1517 1520 1523 1526 1529 1532 1535 1538 1540 1542 1544 1546 1548 1549 1551 1552 1553 1554 1555 1556 1557 1557 1558 1558 1559 1559 1559 1559 1559 1560
1490 1493 1495 1495 1494 1492 1490 1491 1492 1494 1496 1498 1499 1500 1502 1505 1507 1511 1514 1517 1520 1524 1526 1529 1532 1535 1537 1540 1542 1544 1546 1548 1550 1551 1552 1553 1554 1556 1557 1557 1558 1558 1559 1559 1559 1559 1560 1560 1560
1489 1494 1492 1491 1491 1489 1488 1490 1491 1493 1494 1496 1497 1499 1500 1503 1506 1510 1513 1517 1520 1523 1526 1529 1532 1535 1537 1540 1542 1544 1546 1548 1550 1551 1552 1554 1555 1556 1557 1557 1558 1558 1559 1559 1559 1560 1560 1560 1560
1487 1489 1485 1485 1486 1486 1486 1488 1490 1492 1493 1495 1496 1498 1500 1503 1506 1508 1511 1514 1518 1521 1525 1528 1532 1534 1537 1539 1541 1544 1546 1548 1549 1551 1552 1554 1555 1556 1557 1557 1558 1558 1559 1559 1559 1560 1560 1560 1560
1484 1484 1483 1483 1484 1484 1485 1487 1488 1490 1493 1492 1493 1496 1499 1502 1505 1508 1510 1513 1516 1520 1524 1527 1531 1534 1536 1538 1541 1543 1545 1547 1549 1551 1552 1553 1554 1555 1556 1557 1557 1558 1558 1559 1559 1559 1560 1560 1560
1483 1482 1482 1482 1483 1484 1484 1485 1487 1488 1489 1490 1492 1494 1497 1501 1504 1506 1509 1512 1516 1519 1523 1526 1529 1532 1535 1538 1540 1542 1544 1546 1548 1550 1551 1552 1554 1555 1555 1556 1557 1558 1558 1558 1559 1559 1559 1559 1560
1481 1481 1481 1482 1483 1483 1484 1485 1486 1487 1487 1489 1491 1494 1496 1499 1502 1506 1509 1512 1515 1518 1522 1525 1528 1531 1534 1537 1539 1541 1543 1545 1547 1549 1550 1552 1553 1554 1555 1556 1556 1557 1558 1558 1558 1558 1558 1559 1559
1479 1480 1481 1482 1482 1482 1483 1484 1486 1485 1487 1488 1491 1493 1496 1499 1501 1504 1507 1510 1513 1517 1520 1523 1527 1530 1532 1535 1538 1540 1542 1544 1546 1548 1549 1551 1552 1553 1554 1555 1555 1556 1557 1557 1557 1557 1557 1558 1558
1478 1481 1482 1481 1482 1482 1483 1486 1485 1485 1487 1488 1491 1493 1495 1498 1500 1503 1506 1509 1512 1515 1518 1522 1525 1528 1531 1533 1536 1538 1540 1543 1544 1546 1548 1549 1551 1552 1553 1554 1554 1555 1555 1556 1556 1556 1556 1556 1557
1478 1482 1484 1480 1480 1481 1486 1487 1483 1485 1486 1487 1490 1492 1494 1497 1500 1502 1505 1508 1511 1514 1517 1520 1523 1526 1529 1532 1534 1536 1539 1541 1543 1545 1546 1548 1549 1550 1551 1552 1553 1553 1554 1554 1554 1555 1555 1555 1555
1480 1483 1483 1482 1480 1481 1484 1486 1483 1484 1485 1487 1489 1491 1493 1496 1498 1501 1504 1507 1510 1513 1516 1519 1521 1524 1527 1530 1532 1535 1537 1539 1541 1543 1544 1546 1547 1549 1550 1550 1551 1552 1552 1552 1553 1553 1553 1553 1553
1479 1481 1482 1483 1480 1482 1484 1485 1483 1484 1485 1486 1488 1490 1492 1494 1497 1500 1503 1505 1508 1511 1515 1517 1520 1523 1525 1528 1530 1532 1534 1537 1539 1541 1542 1544 1545 1547 1548 1548 1549 1550 1550 1551 1551 1551 1551 1551 1551
1475 1478 1481 1481 1480 1482 1484 1484 1484 1484 1485 1486 1487 1489 1491 1493 1496 1499 1501 1504 1507 1510 1513 1515 1518 1521 1523 1525 1527 1529 1532 1534 1536 1538 1540 1542 1543 1544 1545 1546 1547 1548 1548 1548 1549 1549 1549 1549 1549
1474 1478 1481 1481 1479 1481 1484 1485 1484 1484 1484 1484 1486 1487 1489 1492 1494 1497 1499 1502 1505 1508 1510 1513 1516 1519 1521 1523 1525 1528 1530 1532 1534 1536 1538 1540 1542 1543 1543 1544 1545 1545 1546 1546 1546 1547 1547 1547 1547
1474 1477 1479 1481 1481 1481 1484 1486 1485 1483 1484 1484 1485 1486 1488 1490 1492 1495 1497 1500 1503 1506 1509 1511 1514 1516 1519 1521 1523 1526 1528 1530 1532 1533 1535 1537 1539 1540 1541 1542 1543 1543 1543 1543 1544 1544 1544 1544 1545
1475 1474 1476 1478 1483 1488 1486 1492 1485 1483 1484 1483 1484 1485 1486 1489 1491 1493 1495 1498 1501 1504 1506 1509 1512 1514 1517 1519 1521 1522 1524 1526 1529 1531 1532 1534 1536 1538 1539 1540 1540 1541 1541 1541 1542 1542 1542 1542 1542
1473 1473 1476 1479 1484 1489 1489 1493 1488 1484 1483 1482 1482 1483 1484 1487 1489 1491 1494 1496 1499 1502 1504 1507 1509 1512 1514 1516 1518 1520 1522 1525 1527 1529 1530 1532 1534 1535 1536 1537 1538 1538 1539 1539 1539 1540 1540 1540 1540
1472 1476 1478 1482 1485 1489 1487 1491 1488 1484 1479 1478 1479 1481 1482 1484 1487 1490 1492 1495 1497 1499 1502 1504 1507 1509 1512 1514 1516 1518 1520 1522 1524 1526 1528 1529 1531 1532 1534 1535 1535 1536 1536 1536 1537 1537 1537 1537 1537
1473 1479 1486 1488 1490 1488 1485 1487 1484 1477 1476 1476 1477 1478 1480 1482 1485 1487 1490 1492 1495 1497 1499 1502 1504 1507 1509 1511 1513 1515 1518 1520 1522 1523 1525 1526 1528 1529 1530 1532 1532 1533 1534 1534 1534 1535 1535 1535 1535
1475 1477 1484 1487 1489 1490 1487 1485 1481 1477 1475 1475 1475 1477 1479 1481 1483 1485 1488 1490 1492 1495 1497 1499 1502 1504 1507 1509 1511 1513 1515 1517 1519 1521 1523 1524 1525 1526 1528 1529 1530 1530 1531 1531 1531 1532 1532 1532 1532
1475 1479 1480 1487 1494 1493 1489 1486 1480 1475 1474 1474 1475 1476 1477 1479 1482 1483 1485 1488 1490 1492 1495 1497 1500 1502 1504 1507 1509 1511 1513 1515 1517 1519 1520 1522 1523 1524 1525 1526 1527 1527 1528 1528 1528 1529 1529 1529 1529
1475 1477 1482 1486 1490 1490 1487 1485 1480 1477 1475 1475 1476 1476 1477 1478 1480 1482 1483 1486 1488 1490 1493 1495 1497 1500 1502 1504 1506 1508 1510 1512 1514 1516 1517 1519 1520 1521 1522 1523 1524 1525 1525 1525 1525 1526 1526 1526 1526
1477 1479 1480 1485 1486 1491 1490 1483 1475 1474 1474 1475 1476 1476 1476 1477 1478 1480 1481 1483 1486 1488 1490 1492 1495 1497 1499 1501 1503 1505 1507 1509 1511 1513 1515 1516 1518 1519 1519 1520 1521 1521 1522 1522 1522 1522 1523 1522 1522
1476 1477 1479 1483 1490 1491 1490 1484 1474 1474 1474 1474 1475 1476 1476 1477 1478 1479 1480 1481 1483 1485 1487 1490 1492 1494 1497 1499 1501 1503 1504 1506 1508 1510 1512 1513 1515 1516 1516 1517 1518 1518 1519 1519 1519 1519 1519 1519 1519